Regional Weather Roundup
Issued by NWS

Home | Current Version | Previous Version | Graphics & Text | Print | Product List | Glossary Off
Versions: 1 2 3 4 5 6 7 8 9 10 11 12 13 14 15 16 17 18 19 20 21 22 23 24 25 26 27 28 29 30 31 32 33 34 35 36 37 38 39 40 41 42 43 44 45 46 47 48 49 50

198
ASUS43 KTOP 280759
RWRKS

WEATHER ROUNDUP FOR KANSAS
NATIONAL WEATHER SERVICE GOODLAND KS
300 AM CDT SUN AUG 28 2016

NOTE:  "FAIR" INDICATES FEW OR NO CLOUDS BELOW 12,000 FEET WITH NO
SIGNIFICANT WEATHER AND/OR OBSTRUCTIONS TO VISIBILITY.

KSZ001>006-013>018-027>032-041>047-280900-
NORTHWEST KANSAS

CITY           SKY/WX    TMP DP  RH WIND       PRES   REMARKS
GOODLAND       PTCLDY    64  59  83 S9        30.06S
HAYS           CLEAR     68  59  73 S3        30.05R
HILL CITY      PTCLDY    67  65  93 CALM      30.05R
RUSSELL        CLEAR     71  67  87 S9        30.02S
$$

KSZ061>065-074>080-084>089-280900-
SOUTHWEST KANSAS

CITY           SKY/WX    TMP DP  RH WIND       PRES   REMARKS
DODGE CITY     PTCLDY    64  60  87 S8        30.07R
ELKHART          N/A     62  58  87 N3          N/A
GARDEN CITY    MOCLDY    66  60  81 SW10      30.07S
GREAT BEND     CLEAR     70  61  73 S8        30.04S
LIBERAL        CLOUDY    70  61  73 W18G26    30.15R
$$

KSZ066>073-081>083-090>101-280900-
SOUTHEAST KANSAS

CITY           SKY/WX    TMP DP  RH WIND       PRES   REMARKS
CHANUTE        CLEAR     73  70  90 S5        30.05F
COFFEYVILLE    CLEAR     72  69  90 E3        30.04F
HUTCHINSON     PTCLDY    73  69  87 E7        30.04R
MEDICINE LODGE   N/A     72  68  87 SE6       30.03
NEWTON         CLEAR     71  68  90 SE7       30.06S
PARSONS        CLEAR     71  68  90 CALM      30.06F
WICHITA INTL   PTCLDY    73  68  84 S5        30.04R
WICHITA JABRA  CLEAR     72  69  90 S6        30.04S
WINFIELD       CLEAR     74  70  87 SE6       30.05S
$$

KSZ007>012-019>026-033>040-048>060-102>105-280900-
NORTHEAST KANSAS

CITY           SKY/WX    TMP DP  RH WIND       PRES   REMARKS
CONCORDIA      MOCLDY    71  68  90 CALM      30.04S
EMPORIA        PTCLDY    70  68  93 SE7       30.05F
LAWRENCE       PTCLDY    69  68  96 CALM      30.06S
MANHATTAN      PTCLDY    74  68  81 CALM      30.04S
OLATHE IND     PTCLDY    73  71  93 SE6       30.08S
OLATHE EXE     CLEAR     72  70  93 SE3       30.08S
SALINA         CLOUDY    74  70  87 SE6       30.03S
TOPEKA BILLARD PTCLDY    71  68  90 CALM      30.06S
TOPEKA FORBES  PTCLDY    72  68  87 SE3       30.06S
$$




USA.gov is the U.S. government's official web portal to all federal, state and local government web resources and services.